Weather History for Spokane, WA

Change the Weather History Date:

Monday, March 3, 2014

  Actual Average Record
Temperature  
Mean Temperature 29 °F 36 °F  
Max Temperature 39 °F 45 °F 63 °F (1905)
Min Temperature 19 °F 28 °F -10 °F (1891)
Degree Days  
Heating Degree Days 36 29  
Month to date heating degree days 135 87  
Since 1 July heating degree days 5178 4916  
Cooling Degree Days 0 0  
Month to date cooling degree days 0 0  
Year to date cooling degree days 0 0  
Moisture  
Dew Point 27 °F    
Average Humidity 92    
Maximum Humidity 100    
Minimum Humidity 84    
Precipitation  
Precipitation 0.25 in 0.06 in 0.69 in (1947)
Month to date precipitation 0.74 0.17  
Year to date precipitation 3.56 3.29  
Snow  
Snow 0.00 in 0.20 in 3.40 in (1916)
Month to date snowfall 5.7 0.5  
Since 1 July snowfall 37.5 40.8  
Snow Depth 6.00 in    
Sea Level Pressure  
Sea Level Pressure 29.84 in    
Wind  
Wind Speed 6 mph (East)    
Max Wind Speed 14 mph    
Max Gust Speed 17 mph    
Visibility 4 miles    
Events Fog , Rain    
T = Trace of Precipitation, MM = Missing Value Source: NWS Daily Summary

Daily Weather History Graph

Daily Weather History Graph

Search for Another Location

Airport:

Trip Planner

Search our weather history database for the weather conditions in past years. The results will help you decide how hot, cold, wet, or windy it might be!

Date:

Astronomy

Mar. 03, 2014 Rise Set
Actual Time 6:26 AM PST 5:38 PM PST
Civil Twilight 5:55 AM PST 6:09 PM PST
Nautical Twilight 5:20 AM PST 6:44 PM PST
Astronomical Twilight 4:44 AM PST 7:20 PM PST
Moon 7:24 AM PST (3/3) 9:02 PM PST (3/3)
Length of Visible Light 12h 13m
Length of Day
11h 11m
Waxing Crescent, 8% of the Moon is Illuminated
Mar 3
Waxing Crescent
Mar 8
First Quarter
Mar 16
Full
Mar 23
Last Quarter
Mar 30
New

Hourly Weather History & Observations

Time (PST) Temp. Windchill Dew Point Humidity Pressure Visibility Wind Dir Wind Speed Gust Speed Precip Events Conditions
12:53 AM 19.0 °F 11.1 °F 17.1 °F 92% 29.87 in 10.0 mi ENE 5.8 mph - 0.00 in   Overcast
1:53 AM 19.9 °F - 17.1 °F 89% 29.88 in 7.0 mi Calm Calm - N/A   Overcast
2:53 AM 19.9 °F - 17.1 °F 89% 29.89 in 5.0 mi Calm Calm - N/A   Overcast
3:53 AM 19.9 °F 14.9 °F 18.0 °F 92% 29.91 in 4.0 mi SE 3.5 mph - N/A   Overcast
4:53 AM 19.9 °F 13.4 °F 18.0 °F 92% 29.92 in 5.0 mi ESE 4.6 mph - N/A   Overcast
5:53 AM 19.9 °F 13.4 °F 18.0 °F 92% 29.92 in 9.0 mi ENE 4.6 mph - N/A   Overcast
6:53 AM 21.9 °F 17.2 °F 19.0 °F 89% 29.92 in 7.0 mi NE 3.5 mph - N/A   Overcast
7:53 AM 24.8 °F 19.1 °F 21.2 °F 86% 29.81 in 7.0 mi ENE 4.6 mph - N/A   Overcast
7:58 AM 24.8 °F 19.1 °F 21.2 °F 86% 29.81 in 7.0 mi ENE 4.6 mph - N/A   Overcast
8:03 AM 25.0 °F 20.7 °F 21.9 °F 88% 29.90 in 7.0 mi ENE 3.5 mph - N/A   Overcast
8:24 AM 26.1 °F 21.9 °F 21.9 °F 84% 29.81 in 8.0 mi NE 3.5 mph - N/A   Overcast
8:53 AM 27.0 °F 19.5 °F 23.0 °F 85% 29.89 in 8.0 mi ENE 6.9 mph - N/A   Overcast
9:41 AM 26.1 °F 20.5 °F 21.9 °F 84% 29.80 in 7.0 mi ENE 4.6 mph - 0.00 in Rain Light Freezing Rain
9:50 AM 26.6 °F - 23.0 °F 86% 29.79 in 2.5 mi Calm Calm - 0.00 in Rain Light Freezing Rain
9:53 AM 27.0 °F 21.6 °F 23.0 °F 85% 29.87 in 2.5 mi ENE 4.6 mph - 0.00 in Rain Light Freezing Rain
10:06 AM 27.0 °F 20.5 °F 24.1 °F 89% 29.78 in 3.0 mi NE 5.8 mph - 0.01 in Rain Light Freezing Rain
10:19 AM 28.0 °F 21.7 °F 25.0 °F 88% 29.78 in 3.0 mi ENE 5.8 mph - 0.03 in Rain Light Freezing Rain
10:53 AM 28.9 °F 21.9 °F 26.1 °F 89% 29.85 in 2.0 mi NE 6.9 mph - 0.08 in Rain Light Freezing Rain
11:06 AM 28.9 °F 21.9 °F 27.0 °F 92% 29.76 in 2.0 mi ENE 6.9 mph - 0.01 in Rain Light Freezing Rain
11:22 AM 30.0 °F 25.2 °F 27.0 °F 88% 29.76 in 1.0 mi NE 4.6 mph - 0.03 in Rain Light Freezing Rain
11:40 AM 30.0 °F - 28.0 °F 92% 29.76 in 0.5 mi Calm Calm - 0.05 in Rain Light Freezing Rain
11:53 AM 30.0 °F 26.5 °F 28.0 °F 92% 29.83 in 0.5 mi North 3.5 mph - 0.07 in Rain Light Freezing Rain
12:31 PM 30.0 °F 25.2 °F 28.0 °F 92% 29.75 in 1.2 mi ENE 4.6 mph - 0.06 in Rain Light Freezing Rain
12:53 PM 30.9 °F 25.2 °F 28.9 °F 92% 29.81 in 1.2 mi East 5.8 mph - 0.09 in Rain Light Freezing Rain
1:05 PM 32.0 °F 26.4 °F 30.0 °F 92% 29.73 in 1.2 mi East 5.8 mph - 0.00 in Rain Light Rain
1:53 PM 34.0 °F 31.0 °F 30.9 °F 89% 29.79 in 0.5 mi ENE 3.5 mph - 0.01 in   Overcast
2:36 PM 37.9 °F - 34.0 °F 86% 29.71 in 3.0 mi Calm Calm - N/A   Mostly Cloudy
2:53 PM 37.0 °F 33.3 °F 34.0 °F 89% 29.78 in 4.0 mi NNW 4.6 mph - N/A   Mostly Cloudy
3:53 PM 35.1 °F 32.2 °F 33.1 °F 92% 29.80 in 4.0 mi Variable 3.5 mph - N/A   Mostly Cloudy
4:53 PM 37.9 °F 31.5 °F 34.0 °F 86% 29.81 in 7.0 mi SW 9.2 mph - N/A   Mostly Cloudy
5:53 PM 36.0 °F 30.3 °F 33.1 °F 89% 29.83 in 10.0 mi SSW 6.9 mph - N/A   Overcast
6:53 PM 35.1 °F 27.9 °F 33.1 °F 92% 29.85 in 7.0 mi SSW 9.2 mph - N/A   Overcast
6:58 PM 35.1 °F 27.4 °F 33.1 °F 92% 29.78 in 1.0 mi SSW 10.4 mph - N/A   Overcast
7:44 PM 34.0 °F 26.0 °F 33.1 °F 96% 29.79 in 0.5 mi South 10.4 mph - N/A   Overcast
7:53 PM 34.0 °F 25.0 °F 33.1 °F 96% 29.86 in 0.5 mi SSW 12.7 mph - N/A   Overcast
8:53 PM 34.0 °F 29.8 °F 32.0 °F 92% 29.87 in 2.0 mi West 4.6 mph - N/A   Overcast
9:53 PM 33.1 °F 26.1 °F 32.0 °F 96% 29.89 in 0.5 mi SW 8.1 mph - N/A   Overcast
10:53 PM 33.1 °F 26.1 °F 33.1 °F 100% 29.89 in 0.5 mi South 8.1 mph - N/A   Mist
11:27 PM 33.1 °F 27.7 °F 33.1 °F 100% 29.84 in 0.5 mi SSW 5.8 mph - N/A   Mist
11:53 PM 34.0 °F 27.2 °F 33.1 °F 96% 29.90 in 0.5 mi SW 8.1 mph - N/A Fog Fog